Wetterdaten: Woche 05.03.12 - 11.03.12 (KW10)
Datum Zeit Temperatur Luftfeuchte Luftdruck Niederschlag Windrichtung Sonnenschein Solar Wind
05.03.2012 00:00 3,7 C 93 % 1014,2 hPa 0,0 l/m N 0,00 h 0 W/m 0,4 km/h (0 Bft)
05.03.2012 01:00 3,4 C 95 % 1014,0 hPa 0,0 l/m N 0,00 h 0 W/m 1,9 km/h (1 Bft)
05.03.2012 02:00 3,7 C 96 % 1013,9 hPa 0,0 l/m N 0,00 h 0 W/m 0,0 km/h (0 Bft)
05.03.2012 03:00 3,7 C 96 % 1013,5 hPa 0,0 l/m N 0,00 h 0 W/m 0,1 km/h (0 Bft)
05.03.2012 04:00 3,6 C 97 % 1013,3 hPa 0,2 l/m N 0,00 h 0 W/m 0,5 km/h (0 Bft)
05.03.2012 05:00 3,4 C 97 % 1014,0 hPa 1,6 l/m O 0,00 h 0 W/m 3,1 km/h (1 Bft)
05.03.2012 06:00 3,7 C 97 % 1015,1 hPa 1,6 l/m SW 0,00 h 0 W/m 17,7 km/h (3 Bft)
05.03.2012 07:00 2,6 C 95 % 1017,7 hPa 0,4 l/m W-NW 0,00 h 17 W/m 22,8 km/h (4 Bft)
05.03.2012 08:00 2,0 C 94 % 1019,5 hPa 0,2 l/m W 0,00 h 35 W/m 13,0 km/h (3 Bft)
05.03.2012 09:00 2,6 C 92 % 1020,4 hPa 0,0 l/m W-SW 0,42 h 199 W/m 17,6 km/h (3 Bft)
05.03.2012 10:00 3,2 C 86 % 1020,8 hPa 0,0 l/m SW 0,00 h 189 W/m 23,6 km/h (4 Bft)
05.03.2012 11:00 3,8 C 78 % 1021,1 hPa 0,0 l/m W 0,33 h 255 W/m 31,6 km/h (5 Bft)
05.03.2012 12:00 3,0 C 78 % 1021,2 hPa 0,0 l/m W 0,08 h 110 W/m 20,0 km/h (4 Bft)
05.03.2012 13:00 4,3 C 69 % 1020,9 hPa 0,0 l/m W-SW 0,50 h 312 W/m 20,1 km/h (4 Bft)
05.03.2012 14:00 4,0 C 66 % 1021,2 hPa 0,0 l/m W 0,00 h 97 W/m 19,6 km/h (3 Bft)
05.03.2012 15:00 3,7 C 66 % 1021,4 hPa 0,0 l/m W 0,00 h 79 W/m 15,3 km/h (3 Bft)
05.03.2012 16:00 3,4 C 63 % 1021,6 hPa 0,0 l/m W-SW 0,00 h 54 W/m 18,5 km/h (3 Bft)
05.03.2012 17:00 3,0 C 68 % 1021,6 hPa 0,0 l/m W-NW 0,00 h 22 W/m 10,9 km/h (2 Bft)
05.03.2012 18:00 2,4 C 71 % 1021,7 hPa 0,0 l/m N 0,00 h 5 W/m 1,9 km/h (1 Bft)
05.03.2012 19:00 1,4 C 71 % 1021,9 hPa 0,0 l/m N 0,00 h 0 W/m 0,8 km/h (0 Bft)
05.03.2012 20:00 -0,0 C 76 % 1022,0 hPa 0,0 l/m N 0,00 h 0 W/m 0,0 km/h (0 Bft)
05.03.2012 21:00 -0,9 C 81 % 1022,2 hPa 0,0 l/m N 0,00 h 0 W/m 0,0 km/h (0 Bft)
05.03.2012 22:00 -1,1 C 86 % 1022,4 hPa 0,0 l/m N 0,00 h 0 W/m 0,0 km/h (0 Bft)
05.03.2012 23:00 -1,5 C 87 % 1022,3 hPa 0,0 l/m N 0,00 h 0 W/m 0,1 km/h (0 Bft)
06.03.2012 00:00 -1,9 C 88 % 1022,4 hPa 0,0 l/m N 0,00 h 0 W/m 0,0 km/h (0 Bft)
06.03.2012 01:00 -2,3 C 90 % 1022,4 hPa 0,0 l/m N 0,00 h 0 W/m 0,0 km/h (0 Bft)
06.03.2012 02:00 -2,4 C 91 % 1022,3 hPa 0,0 l/m N 0,00 h 0 W/m 0,0 km/h (0 Bft)
06.03.2012 03:00 -2,3 C 93 % 1022,1 hPa 0,0 l/m N 0,00 h 0 W/m 0,0 km/h (0 Bft)
06.03.2012 04:00 -2,3 C 93 % 1022,0 hPa 0,0 l/m N 0,00 h 0 W/m 0,0 km/h (0 Bft)
06.03.2012 05:00 -2,2 C 94 % 1022,2 hPa 0,0 l/m N 0,00 h 0 W/m 0,0 km/h (0 Bft)
06.03.2012 06:00 -2,6 C 94 % 1022,4 hPa 0,0 l/m N 0,00 h 10 W/m 0,3 km/h (0 Bft)
06.03.2012 07:00 -2,4 C 94 % 1023,0 hPa 0,0 l/m N 0,33 h 52 W/m 1,5 km/h (1 Bft)
06.03.2012 08:00 -0,5 C 91 % 1023,5 hPa 0,0 l/m W-NW 1,00 h 190 W/m 4,1 km/h (1 Bft)
06.03.2012 09:00 1,5 C 82 % 1024,0 hPa 0,0 l/m N 1,00 h 351 W/m 7,9 km/h (2 Bft)
06.03.2012 10:00 3,2 C 70 % 1024,2 hPa 0,0 l/m NO 1,00 h 486 W/m 11,7 km/h (2 Bft)
06.03.2012 11:00 4,2 C 64 % 1024,2 hPa 0,0 l/m O-NO 0,50 h 338 W/m 14,5 km/h (3 Bft)
06.03.2012 12:00 3,5 C 67 % 1024,3 hPa 0,0 l/m O-SO 0,00 h 144 W/m 14,5 km/h (3 Bft)
06.03.2012 13:00 3,7 C 68 % 1024,1 hPa 0,0 l/m O-NO 0,00 h 173 W/m 13,4 km/h (3 Bft)
06.03.2012 14:00 4,2 C 69 % 1023,8 hPa 0,0 l/m O-NO 0,00 h 207 W/m 16,2 km/h (3 Bft)
06.03.2012 15:00 4,3 C 71 % 1023,9 hPa 0,0 l/m O-NO 0,00 h 150 W/m 16,4 km/h (3 Bft)
06.03.2012 16:00 4,1 C 73 % 1024,2 hPa 0,0 l/m NO 0,00 h 54 W/m 13,1 km/h (3 Bft)
06.03.2012 17:00 3,8 C 75 % 1024,5 hPa 0,0 l/m O-NO 0,00 h 10 W/m 10,3 km/h (2 Bft)
06.03.2012 18:00 3,6 C 78 % 1025,1 hPa 0,0 l/m NO 0,00 h 0 W/m 9,3 km/h (2 Bft)
06.03.2012 19:00 3,4 C 80 % 1025,5 hPa 0,0 l/m O-NO 0,00 h 0 W/m 9,4 km/h (2 Bft)
06.03.2012 20:00 3,3 C 80 % 1025,8 hPa 0,0 l/m NO 0,00 h 0 W/m 5,5 km/h (1 Bft)
06.03.2012 21:00 3,3 C 81 % 1025,8 hPa 0,0 l/m N 0,00 h 0 W/m 1,7 km/h (1 Bft)
06.03.2012 22:00 3,1 C 82 % 1025,9 hPa 0,0 l/m N 0,00 h 0 W/m 2,0 km/h (1 Bft)
06.03.2012 23:00 2,8 C 82 % 1025,8 hPa 0,0 l/m N 0,00 h 0 W/m 1,6 km/h (1 Bft)
07.03.2012 00:00 2,6 C 82 % 1025,9 hPa 0,0 l/m N 0,00 h 0 W/m 1,6 km/h (1 Bft)
07.03.2012 01:00 2,2 C 82 % 1025,8 hPa 0,0 l/m N 0,00 h 0 W/m 2,5 km/h (1 Bft)
07.03.2012 02:00 0,7 C 84 % 1025,6 hPa 0,0 l/m N 0,00 h 0 W/m 1,1 km/h (0 Bft)
07.03.2012 03:00 -0,6 C 87 % 1025,3 hPa 0,0 l/m N 0,00 h 0 W/m 0,9 km/h (0 Bft)
07.03.2012 04:00 -1,4 C 89 % 1024,9 hPa 0,0 l/m N 0,00 h 0 W/m 0,9 km/h (0 Bft)
07.03.2012 05:00 -1,8 C 91 % 1025,3 hPa 0,0 l/m N-NW 0,00 h 0 W/m 3,9 km/h (1 Bft)
07.03.2012 06:00 -1,8 C 93 % 1025,7 hPa 0,0 l/m N-NW 0,00 h 6 W/m 2,7 km/h (1 Bft)
07.03.2012 07:00 -2,1 C 94 % 1025,9 hPa 0,0 l/m N 0,00 h 39 W/m 0,5 km/h (0 Bft)
07.03.2012 08:00 -0,7 C 94 % 1026,0 hPa 0,0 l/m N 0,67 h 171 W/m 0,7 km/h (0 Bft)
07.03.2012 09:00 1,1 C 90 % 1025,9 hPa 0,2 l/m S-SW 1,00 h 330 W/m 5,6 km/h (1 Bft)
07.03.2012 10:00 3,5 C 81 % 1025,5 hPa 0,0 l/m S-SW 1,00 h 480 W/m 8,4 km/h (2 Bft)
07.03.2012 11:00 5,5 C 68 % 1025,0 hPa 0,0 l/m S-SW 1,00 h 594 W/m 15,8 km/h (3 Bft)
07.03.2012 12:00 6,6 C 68 % 1024,1 hPa 0,0 l/m SW 0,92 h 503 W/m 16,6 km/h (3 Bft)
07.03.2012 13:00 7,0 C 62 % 1022,9 hPa 0,0 l/m SW 1,00 h 533 W/m 19,3 km/h (3 Bft)
07.03.2012 14:00 7,4 C 60 % 1021,7 hPa 0,0 l/m W 0,92 h 401 W/m 19,7 km/h (3 Bft)
07.03.2012 15:00 7,0 C 62 % 1020,7 hPa 0,0 l/m W-SW 0,58 h 250 W/m 19,0 km/h (3 Bft)
07.03.2012 16:00 6,7 C 63 % 1019,8 hPa 0,0 l/m SW 0,08 h 130 W/m 17,4 km/h (3 Bft)
07.03.2012 17:00 6,2 C 64 % 1019,0 hPa 0,0 l/m W-SW 0,17 h 58 W/m 16,4 km/h (3 Bft)
07.03.2012 18:00 5,3 C 67 % 1018,5 hPa 0,0 l/m W-SW 0,08 h 7 W/m 10,1 km/h (2 Bft)
07.03.2012 19:00 5,1 C 67 % 1018,7 hPa 0,0 l/m W-SW 0,00 h 0 W/m 10,6 km/h (2 Bft)
07.03.2012 20:00 4,7 C 69 % 1018,5 hPa 0,0 l/m SW 0,00 h 0 W/m 10,9 km/h (2 Bft)
07.03.2012 21:00 4,3 C 72 % 1018,4 hPa 0,0 l/m SW 0,00 h 0 W/m 11,8 km/h (2 Bft)
07.03.2012 22:00 4,0 C 74 % 1018,2 hPa 0,0 l/m W-SW 0,00 h 0 W/m 15,8 km/h (3 Bft)
07.03.2012 23:00 4,6 C 66 % 1018,5 hPa 0,0 l/m W 0,00 h 0 W/m 18,8 km/h (3 Bft)
08.03.2012 00:00 4,0 C 70 % 1017,9 hPa 0,0 l/m W 0,00 h 0 W/m 18,1 km/h (3 Bft)
08.03.2012 01:00 3,5 C 72 % 1017,4 hPa 0,0 l/m W 0,00 h 0 W/m 15,0 km/h (3 Bft)
08.03.2012 02:00 3,8 C 72 % 1017,5 hPa 0,0 l/m W-SW 0,00 h 0 W/m 23,7 km/h (4 Bft)
08.03.2012 03:00 2,6 C 88 % 1017,6 hPa 0,8 l/m W-SW 0,00 h 0 W/m 24,0 km/h (4 Bft)
08.03.2012 04:00 2,0 C 93 % 1017,8 hPa 0,2 l/m W-SW 0,00 h 0 W/m 20,6 km/h (4 Bft)
08.03.2012 05:00 2,2 C 93 % 1018,6 hPa 0,4 l/m SW 0,00 h 0 W/m 16,0 km/h (3 Bft)
08.03.2012 06:00 2,1 C 94 % 1019,5 hPa 0,4 l/m W-SW 0,00 h 0 W/m 11,4 km/h (2 Bft)
08.03.2012 07:00 2,1 C 94 % 1020,6 hPa 0,2 l/m W 0,00 h 14 W/m 11,3 km/h (2 Bft)
08.03.2012 08:00 2,2 C 95 % 1021,9 hPa 0,0 l/m W 0,00 h 28 W/m 7,4 km/h (2 Bft)
08.03.2012 09:00 2,8 C 92 % 1023,1 hPa 0,0 l/m W-NW 0,00 h 66 W/m 13,0 km/h (3 Bft)
08.03.2012 10:00 3,0 C 87 % 1024,0 hPa 0,0 l/m N-NW 0,00 h 93 W/m 15,7 km/h (3 Bft)
08.03.2012 11:00 3,8 C 80 % 1025,0 hPa 0,0 l/m N 0,00 h 124 W/m 15,2 km/h (3 Bft)
08.03.2012 12:00 4,1 C 76 % 1025,7 hPa 0,0 l/m N 0,00 h 130 W/m 15,8 km/h (3 Bft)
08.03.2012 13:00 5,5 C 69 % 1025,9 hPa 0,0 l/m N 0,25 h 263 W/m 12,8 km/h (3 Bft)
08.03.2012 14:00 6,0 C 64 % 1026,2 hPa 0,0 l/m NO 0,33 h 189 W/m 13,7 km/h (3 Bft)
08.03.2012 15:00 4,9 C 70 % 1027,2 hPa 0,0 l/m N-NO 0,08 h 152 W/m 18,9 km/h (3 Bft)
08.03.2012 16:00 4,9 C 68 % 1027,8 hPa 0,0 l/m N 0,58 h 192 W/m 16,9 km/h (3 Bft)
08.03.2012 17:00 3,5 C 73 % 1028,7 hPa 0,0 l/m N 0,00 h 38 W/m 13,3 km/h (3 Bft)
08.03.2012 18:00 2,7 C 76 % 1029,7 hPa 0,0 l/m N 0,08 h 8 W/m 2,5 km/h (1 Bft)
08.03.2012 19:00 1,4 C 80 % 1030,8 hPa 0,0 l/m N 0,00 h 0 W/m 0,4 km/h (0 Bft)
08.03.2012 20:00 0,3 C 85 % 1031,7 hPa 0,0 l/m N 0,00 h 0 W/m 0,4 km/h (0 Bft)
08.03.2012 21:00 -0,4 C 87 % 1032,4 hPa 0,0 l/m N 0,00 h 0 W/m 0,1 km/h (0 Bft)
08.03.2012 22:00 -0,7 C 90 % 1033,1 hPa 0,0 l/m N 0,00 h 0 W/m 0,0 km/h (0 Bft)
08.03.2012 23:00 -0,7 C 92 % 1033,8 hPa 0,0 l/m N 0,00 h 0 W/m 0,7 km/h (0 Bft)
09.03.2012 00:00 -0,7 C 93 % 1034,2 hPa 0,0 l/m N 0,00 h 0 W/m 0,3 km/h (0 Bft)
09.03.2012 01:00 -1,3 C 93 % 1034,4 hPa 0,0 l/m N 0,00 h 0 W/m 0,8 km/h (0 Bft)
09.03.2012 02:00 -2,4 C 93 % 1034,9 hPa 0,0 l/m N 0,00 h 0 W/m 0,3 km/h (0 Bft)
09.03.2012 03:00 -3,1 C 93 % 1035,0 hPa 0,0 l/m N 0,00 h 0 W/m 0,3 km/h (0 Bft)
09.03.2012 04:00 -3,8 C 94 % 1035,5 hPa 0,0 l/m N 0,00 h 0 W/m 0,0 km/h (0 Bft)
09.03.2012 05:00 -4,2 C 94 % 1035,9 hPa 0,0 l/m N 0,00 h 0 W/m 0,1 km/h (0 Bft)
09.03.2012 06:00 -4,4 C 94 % 1036,1 hPa 0,0 l/m N 0,00 h 7 W/m 0,0 km/h (0 Bft)
09.03.2012 07:00 -4,2 C 95 % 1036,6 hPa 0,0 l/m N 0,00 h 47 W/m 0,0 km/h (0 Bft)
09.03.2012 08:00 -1,5 C 95 % 1037,2 hPa 0,0 l/m NW 0,75 h 181 W/m 1,1 km/h (0 Bft)
09.03.2012 09:00 1,1 C 90 % 1037,7 hPa 0,2 l/m NO 1,00 h 354 W/m 7,2 km/h (2 Bft)
09.03.2012 10:00 3,1 C 81 % 1037,8 hPa 0,0 l/m O-NO 1,00 h 487 W/m 7,8 km/h (2 Bft)
09.03.2012 11:00 4,5 C 72 % 1037,8 hPa 0,0 l/m O-SO 0,50 h 413 W/m 11,0 km/h (2 Bft)
09.03.2012 12:00 5,9 C 62 % 1037,6 hPa 0,0 l/m O-SO 0,67 h 512 W/m 12,8 km/h (3 Bft)
09.03.2012 13:00 6,0 C 56 % 1037,0 hPa 0,0 l/m O-SO 0,33 h 315 W/m 14,2 km/h (3 Bft)
09.03.2012 14:00 6,6 C 52 % 1036,5 hPa 0,0 l/m O 0,50 h 360 W/m 14,4 km/h (3 Bft)
09.03.2012 15:00 7,4 C 49 % 1036,2 hPa 0,0 l/m O-SO 1,00 h 459 W/m 13,4 km/h (3 Bft)
09.03.2012 16:00 7,0 C 46 % 1036,2 hPa 0,0 l/m O-NO 1,00 h 276 W/m 10,3 km/h (2 Bft)
09.03.2012 17:00 6,2 C 50 % 1036,4 hPa 0,0 l/m O 0,58 h 82 W/m 9,4 km/h (2 Bft)
09.03.2012 18:00 3,9 C 60 % 1036,6 hPa 0,0 l/m O 0,08 h 9 W/m 1,5 km/h (1 Bft)
09.03.2012 19:00 1,3 C 72 % 1037,0 hPa 0,0 l/m N 0,00 h 0 W/m 1,9 km/h (1 Bft)
09.03.2012 20:00 0,4 C 77 % 1037,1 hPa 0,0 l/m N 0,00 h 0 W/m 1,3 km/h (1 Bft)
09.03.2012 21:00 -0,5 C 81 % 1037,0 hPa 0,0 l/m N 0,00 h 0 W/m 0,0 km/h (0 Bft)
09.03.2012 22:00 -1,2 C 83 % 1037,1 hPa 0,0 l/m N 0,00 h 0 W/m 0,1 km/h (0 Bft)
09.03.2012 23:00 -1,6 C 85 % 1037,5 hPa 0,0 l/m N 0,00 h 0 W/m 0,0 km/h (0 Bft)
10.03.2012 00:00 -1,9 C 87 % 1037,3 hPa 0,0 l/m N 0,00 h 0 W/m 0,0 km/h (0 Bft)
10.03.2012 01:00 -2,3 C 87 % 1036,9 hPa 0,0 l/m N 0,00 h 0 W/m 0,9 km/h (0 Bft)
10.03.2012 02:00 -2,5 C 88 % 1036,8 hPa 0,0 l/m N 0,00 h 0 W/m 0,7 km/h (0 Bft)
10.03.2012 03:00 -2,8 C 89 % 1036,7 hPa 0,0 l/m N 0,00 h 0 W/m 0,3 km/h (0 Bft)
10.03.2012 04:00 -3,1 C 90 % 1037,0 hPa 0,0 l/m N 0,00 h 0 W/m 0,0 km/h (0 Bft)
10.03.2012 05:00 -3,2 C 91 % 1037,0 hPa 0,0 l/m N 0,00 h 0 W/m 0,0 km/h (0 Bft)
10.03.2012 06:00 -3,2 C 92 % 1036,9 hPa 0,0 l/m N 0,00 h 7 W/m 0,0 km/h (0 Bft)
10.03.2012 07:00 -3,5 C 92 % 1037,0 hPa 0,0 l/m N 0,00 h 44 W/m 0,0 km/h (0 Bft)
10.03.2012 08:00 -1,3 C 91 % 1037,0 hPa 0,0 l/m N 0,50 h 164 W/m 1,1 km/h (0 Bft)
10.03.2012 09:00 0,7 C 87 % 1037,0 hPa 0,0 l/m S-SW 0,67 h 316 W/m 3,1 km/h (1 Bft)
10.03.2012 10:00 3,7 C 75 % 1036,8 hPa 0,0 l/m S-SO 1,00 h 507 W/m 5,1 km/h (1 Bft)
10.03.2012 11:00 6,0 C 63 % 1036,2 hPa 0,0 l/m SO 1,00 h 597 W/m 5,8 km/h (1 Bft)
10.03.2012 12:00 7,9 C 46 % 1035,6 hPa 0,0 l/m SO 1,00 h 607 W/m 7,6 km/h (2 Bft)
10.03.2012 13:00 8,4 C 45 % 1035,0 hPa 0,0 l/m NW 0,92 h 507 W/m 7,6 km/h (2 Bft)
10.03.2012 14:00 9,6 C 43 % 1034,2 hPa 0,0 l/m O-SO 1,00 h 572 W/m 9,8 km/h (2 Bft)
10.03.2012 15:00 10,0 C 41 % 1033,7 hPa 0,0 l/m O-SO 1,00 h 439 W/m 10,6 km/h (2 Bft)
10.03.2012 16:00 9,5 C 36 % 1033,5 hPa 0,0 l/m O 0,58 h 177 W/m 8,0 km/h (2 Bft)
10.03.2012 17:00 9,0 C 41 % 1033,8 hPa 0,0 l/m O 0,33 h 74 W/m 6,9 km/h (2 Bft)
10.03.2012 18:00 7,2 C 54 % 1033,7 hPa 0,0 l/m NO 0,00 h 9 W/m 2,0 km/h (1 Bft)
10.03.2012 19:00 4,1 C 67 % 1033,7 hPa 0,0 l/m NO 0,00 h 0 W/m 0,5 km/h (0 Bft)
10.03.2012 20:00 3,3 C 71 % 1033,8 hPa 0,0 l/m NO 0,00 h 0 W/m 3,2 km/h (1 Bft)
10.03.2012 21:00 1,6 C 78 % 1033,3 hPa 0,0 l/m N 0,00 h 0 W/m 0,0 km/h (0 Bft)
10.03.2012 22:00 1,1 C 82 % 1033,5 hPa 0,0 l/m N-NW 0,00 h 0 W/m 4,2 km/h (1 Bft)
10.03.2012 23:00 1,3 C 83 % 1033,5 hPa 0,0 l/m N 0,00 h 0 W/m 0,4 km/h (0 Bft)
11.03.2012 00:00 1,7 C 84 % 1033,4 hPa 0,0 l/m N 0,00 h 0 W/m 0,0 km/h (0 Bft)
11.03.2012 01:00 2,1 C 84 % 1033,8 hPa 0,0 l/m N 0,00 h 0 W/m 0,1 km/h (0 Bft)
11.03.2012 02:00 1,9 C 86 % 1033,2 hPa 0,0 l/m W 0,00 h 0 W/m 2,5 km/h (1 Bft)
11.03.2012 03:00 1,4 C 88 % 1032,1 hPa 0,0 l/m N 0,00 h 0 W/m 1,1 km/h (0 Bft)
11.03.2012 04:00 2,0 C 89 % 1031,7 hPa 0,0 l/m N 0,00 h 0 W/m 0,8 km/h (0 Bft)
11.03.2012 05:00 2,2 C 87 % 1031,5 hPa 0,0 l/m N 0,00 h 0 W/m 0,0 km/h (0 Bft)
11.03.2012 06:00 2,2 C 86 % 1031,4 hPa 0,0 l/m N 0,00 h 5 W/m 1,6 km/h (1 Bft)
11.03.2012 07:00 1,8 C 88 % 1031,6 hPa 0,0 l/m W 0,00 h 10 W/m 2,8 km/h (1 Bft)
11.03.2012 08:00 1,9 C 92 % 1031,5 hPa 0,0 l/m W 0,00 h 29 W/m 3,6 km/h (1 Bft)
11.03.2012 09:00 2,5 C 91 % 1031,8 hPa 0,0 l/m W 0,00 h 44 W/m 6,0 km/h (2 Bft)
11.03.2012 10:00 2,7 C 90 % 1031,8 hPa 0,0 l/m SW 0,00 h 61 W/m 8,6 km/h (2 Bft)
11.03.2012 11:00 3,0 C 90 % 1031,9 hPa 0,0 l/m S-SW 0,00 h 52 W/m 8,2 km/h (2 Bft)
11.03.2012 12:00 2,9 C 94 % 1032,1 hPa 0,4 l/m S-SW 0,00 h 59 W/m 5,2 km/h (1 Bft)
11.03.2012 13:00 3,8 C 96 % 1031,8 hPa 0,2 l/m S-SW 0,17 h 223 W/m 5,7 km/h (1 Bft)
11.03.2012 14:00 5,3 C 94 % 1031,4 hPa 0,0 l/m S-SW 0,00 h 75 W/m 6,4 km/h (2 Bft)
11.03.2012 15:00 4,8 C 94 % 1031,7 hPa 0,0 l/m S-SW 0,00 h 60 W/m 6,0 km/h (2 Bft)
11.03.2012 16:00 5,0 C 94 % 1031,9 hPa 0,0 l/m S-SW 0,00 h 39 W/m 3,7 km/h (1 Bft)
11.03.2012 17:00 4,8 C 93 % 1032,0 hPa 0,0 l/m S-SW 0,00 h 11 W/m 3,3 km/h (1 Bft)
11.03.2012 18:00 4,5 C 94 % 1032,1 hPa 0,0 l/m N 0,00 h 5 W/m 0,7 km/h (0 Bft)
11.03.2012 19:00 4,3 C 94 % 1032,4 hPa 0,0 l/m N 0,00 h 0 W/m 0,1 km/h (0 Bft)
11.03.2012 20:00 4,1 C 95 % 1032,3 hPa 0,0 l/m N 0,00 h 0 W/m 0,1 km/h (0 Bft)
11.03.2012 21:00 3,9 C 95 % 1032,3 hPa 0,0 l/m N 0,00 h 0 W/m 0,0 km/h (0 Bft)
11.03.2012 22:00 3,8 C 95 % 1031,9 hPa 0,0 l/m N 0,00 h 0 W/m 0,0 km/h (0 Bft)
11.03.2012 23:00 3,6 C 96 % 1031,8 hPa 0,0 l/m N 0,00 h 0 W/m 0,0 km/h (0 Bft)
Min-Datum _ 09.03.12 10.03.12 05.03.12 - - - - 05.03.12
_ Min-Zeit 06:55 16:35 03:55 - - - - 00:00
Minimum _ -4,6 C 35 % 1013,3 hPa - - - - 0,0 km/h (0 Bft)
Max-Datum _ 10.03.12 05.03.12 09.03.12 05.03.12 - 05.03.12 10.03.12 05.03.12
_ Max-Zeit 15:25 07:25 10:45 05:05 - 09:25 12:25 06:45
Maximum _ 10,2 C 100 % 1038,0 hPa 1,6 l/m - 0,08 h 751 W/m 38,6 km/h
W-NW (5 Bft)
Durchschnitt _ 2,4 C 80 % 1027,8 hPa #7,0 l/m W-SW #29:30 h 188 W/m 6,9 km/h (2 Bft)